When you browse on this site, cookies collect data to enhance your experience and personalize the content and advertising you see.
Visit our Privacy Policy to learn more. By continuing to use the site, you agree to this use of cookies and data.
  • In Portugal
  • List of Countries
  • For 7 days
  • Water Temperature
  • Weather Map
  • Weather Widgets
  • user-avatar
    Login

    Hourly Weather Uy-Salgan

    Today, 23 September, Monday

    Time Temperature Precipitation Wind Pressure Humidity
    00:00 +13°C° 0 mm 4 mps 756 mmHg 53%
    01:00 +13°C° 0 mm 4 mps 756 mmHg 54%
    02:00 +12°C° 0 mm 4 mps 756 mmHg 55%
    03:00 +12°C° 0 mm 4 mps 756 mmHg 56%
    04:00 +12°C° 0 mm 4 mps 756 mmHg 57%
    05:00 +12°C° 0 mm 4 mps 756 mmHg 57%
    06:00 +11°C° 0 mm 4 mps 756 mmHg 58%
    07:00 +14°C° 0 mm 4 mps 756 mmHg 52%
    08:00 +17°C° 0 mm 4 mps 756 mmHg 46%
    09:00 +19°C° 0 mm 5 mps 756 mmHg 40%
    10:00 +20°C° 0 mm 5 mps 756 mmHg 38%
    11:00 +21°C° 0 mm 5 mps 755 mmHg 36%
    12:00 +22°C° 0 mm 5 mps 755 mmHg 34%
    13:00 +23°C° 0 mm 5 mps 754 mmHg 33%
    14:00 +23°C° 0 mm 5 mps 754 mmHg 32%
    15:00 +25°C° 0 mm 4 mps 754 mmHg 30%
    16:00 +22°C° 0 mm 3 mps 754 mmHg 34%
    17:00 +21°C° 0 mm 3 mps 754 mmHg 37%
    18:00 +20°C° 0 mm 2 mps 754 mmHg 40%
    19:00 +19°C° 0 mm 2 mps 755 mmHg 42%
    20:00 +19°C° 0 mm 1 mps 755 mmHg 44%
    21:00 +19°C° 0 mm 1 mps 755 mmHg 46%
    22:00 +18°C° 0 mm 1 mps 755 mmHg 48%
    23:00 +17°C° 0 mm 2 mps 755 mmHg 49%

    Tomorrow, 24 September, Tuesday

    Time Temperature Precipitation Wind Pressure Humidity
    00:00 +16°C° 0 mm 2 mps 755 mmHg 51%
    01:00 +16°C° 0 mm 2 mps 755 mmHg 57%
    02:00 +15°C° 0 mm 2 mps 755 mmHg 62%
    03:00 +13°C° 0 mm 3 mps 755 mmHg 68%
    04:00 +13°C° 0 mm 2 mps 755 mmHg 73%
    05:00 +13°C° 0 mm 2 mps 755 mmHg 78%
    06:00 +12°C° 0 mm 2 mps 755 mmHg 83%
    07:00 +14°C° 0 mm 2 mps 755 mmHg 76%
    08:00 +16°C° 0 mm 2 mps 755 mmHg 69%
    09:00 +18°C° 0 mm 2 mps 755 mmHg 62%
    10:00 +19°C° 0 mm 2 mps 755 mmHg 56%
    11:00 +21°C° 0 mm 2 mps 755 mmHg 49%
    12:00 +23°C° 0 mm 2 mps 754 mmHg 42%
    13:00 +24°C° 0 mm 2 mps 754 mmHg 40%
    14:00 +24°C° 0 mm 3 mps 754 mmHg 37%
    15:00 +25°C° 0 mm 3 mps 754 mmHg 35%
    16:00 +23°C° 0 mm 4 mps 754 mmHg 42%
    17:00 +21°C° 0 mm 5 mps 754 mmHg 50%
    18:00 +20°C° 0 mm 6 mps 754 mmHg 57%
    19:00 +19°C° 0 mm 6 mps 754 mmHg 63%
    20:00 +17°C° 0 mm 6 mps 754 mmHg 70%
    21:00 +16°C° 0 mm 6 mps 754 mmHg 76%
    22:00 +16°C° 0 mm 5 mps 754 mmHg 79%
    23:00 +16°C° 0 mm 5 mps 754 mmHg 82%

    Day after tomorrow, 25 September, Wednesday

    Time Temperature Precipitation Wind Pressure Humidity
    00:00 +15°C° 0 mm 4 mps 753 mmHg 85%
    01:00 +15°C° 0 mm 4 mps 753 mmHg 87%
    02:00 +16°C° 0 mm 3 mps 753 mmHg 89%
    03:00 +16°C° 0 mm 3 mps 754 mmHg 91%
    04:00 +16°C° 0.1 mm 3 mps 754 mmHg 91%
    05:00 +16°C° 0.1 mm 3 mps 754 mmHg 91%
    06:00 +16°C° 0.1 mm 3 mps 754 mmHg 91%
    07:00 +17°C° 0 mm 3 mps 754 mmHg 85%
    08:00 +18°C° 0 mm 3 mps 755 mmHg 79%
    09:00 +18°C° 0 mm 2 mps 755 mmHg 73%
    10:00 +19°C° 0 mm 3 mps 755 mmHg 66%
    11:00 +21°C° 0 mm 3 mps 755 mmHg 60%
    12:00 +22°C° 0 mm 3 mps 755 mmHg 53%
    13:00 +22°C° 0 mm 3 mps 755 mmHg 52%
    14:00 +22°C° 0 mm 4 mps 755 mmHg 52%
    15:00 +22°C° 0 mm 4 mps 755 mmHg 51%
    16:00 +21°C° 0 mm 5 mps 755 mmHg 55%
    17:00 +20°C° 0 mm 6 mps 755 mmHg 59%
    18:00 +19°C° 0 mm 6 mps 755 mmHg 64%
    19:00 +19°C° 0 mm 6 mps 755 mmHg 68%
    20:00 +17°C° 0 mm 6 mps 755 mmHg 72%
    21:00 +16°C° 0 mm 6 mps 755 mmHg 76%
    22:00 +16°C° 0 mm 6 mps 755 mmHg 77%
    23:00 +16°C° 0 mm 6 mps 755 mmHg 78%

    26 September, Thursday

    Time Temperature Precipitation Wind Pressure Humidity
    00:00 +16°C° 0 mm 6 mps 755 mmHg 79%
    01:00 +16°C° 0 mm 5 mps 755 mmHg 80%
    02:00 +16°C° 0 mm 5 mps 754 mmHg 81%
    03:00 +16°C° 0 mm 5 mps 754 mmHg 82%
    04:00 +15°C° 0 mm 5 mps 754 mmHg 82%
    05:00 +15°C° 0 mm 4 mps 754 mmHg 83%
    06:00 +15°C° 0 mm 4 mps 754 mmHg 83%
    07:00 +16°C° 0 mm 5 mps 754 mmHg 79%
    08:00 +17°C° 0 mm 5 mps 754 mmHg 76%
    09:00 +17°C° 0 mm 5 mps 754 mmHg 72%
    10:00 +19°C° 0 mm 5 mps 754 mmHg 67%
    11:00 +20°C° 0 mm 5 mps 754 mmHg 62%
    12:00 +21°C° 0 mm 4 mps 754 mmHg 57%
    13:00 +21°C° 0 mm 5 mps 754 mmHg 55%
    14:00 +22°C° 0 mm 5 mps 754 mmHg 54%
    15:00 +22°C° 0 mm 5 mps 754 mmHg 52%
    16:00 +21°C° 0.1 mm 6 mps 754 mmHg 55%
    17:00 +20°C° 0.1 mm 6 mps 755 mmHg 58%
    18:00 +19°C° 0.1 mm 6 mps 755 mmHg 60%
    19:00 +19°C° 0 mm 6 mps 755 mmHg 62%
    20:00 +17°C° 0 mm 5 mps 755 mmHg 64%
    21:00 +17°C° 0 mm 5 mps 755 mmHg 65%
    22:00 +16°C° 0 mm 5 mps 754 mmHg 67%
    23:00 +16°C° 0 mm 5 mps 754 mmHg 70%

    27 September, Friday

    Time Temperature Precipitation Wind Pressure Humidity
    00:00 +15°C° 0 mm 4 mps 754 mmHg 72%
    01:00 +15°C° 0 mm 4 mps 754 mmHg 74%
    02:00 +15°C° 0 mm 4 mps 754 mmHg 76%
    03:00 +15°C° 0 mm 4 mps 754 mmHg 78%
    04:00 +15°C° 0 mm 4 mps 754 mmHg 78%
    05:00 +15°C° 0 mm 4 mps 754 mmHg 77%
    06:00 +15°C° 0 mm 4 mps 754 mmHg 77%
    07:00 +16°C° 0 mm 5 mps 753 mmHg 71%
    08:00 +17°C° 0 mm 6 mps 753 mmHg 65%
    09:00 +20°C° 0 mm 7 mps 753 mmHg 58%
    10:00 +21°C° 0 mm 6 mps 753 mmHg 53%
    11:00 +23°C° 0 mm 6 mps 753 mmHg 48%
    12:00 +24°C° 0 mm 6 mps 753 mmHg 43%
    13:00 +24°C° 0 mm 6 mps 753 mmHg 41%
    14:00 +24°C° 0 mm 6 mps 752 mmHg 40%
    15:00 +26°C° 0 mm 6 mps 752 mmHg 39%
    16:00 +23°C° 0 mm 6 mps 752 mmHg 42%
    17:00 +22°C° 0 mm 6 mps 752 mmHg 46%
    18:00 +21°C° 0 mm 6 mps 753 mmHg 49%
    19:00 +20°C° 0 mm 6 mps 753 mmHg 52%
    20:00 +19°C° 0 mm 6 mps 753 mmHg 54%
    21:00 +18°C° 0 mm 7 mps 753 mmHg 56%
    22:00 +19°C° 0 mm 6 mps 753 mmHg 57%
    23:00 +17°C° 0 mm 5 mps 753 mmHg 58%

    28 September, Saturday

    Time Temperature Precipitation Wind Pressure Humidity
    00:00 +18°C° 0 mm 4 mps 752 mmHg 58%
    01:00 +18°C° 0 mm 4 mps 752 mmHg 58%
    02:00 +18°C° 0 mm 4 mps 752 mmHg 58%
    03:00 +18°C° 0 mm 4 mps 752 mmHg 58%
    04:00 +18°C° 0.1 mm 4 mps 751 mmHg 59%
    05:00 +18°C° 0.1 mm 4 mps 751 mmHg 59%
    06:00 +17°C° 0.1 mm 3 mps 751 mmHg 60%
    07:00 +17°C° 0.2 mm 3 mps 752 mmHg 62%
    08:00 +17°C° 0.2 mm 3 mps 752 mmHg 64%
    09:00 +17°C° 0.2 mm 3 mps 752 mmHg 66%
    10:00 +15°C° 1.3 mm 4 mps 753 mmHg 72%
    11:00 +14°C° 1.3 mm 6 mps 754 mmHg 77%
    12:00 +12°C° 1.3 mm 7 mps 754 mmHg 83%
    13:00 +14°C° 0.1 mm 6 mps 754 mmHg 82%
    14:00 +14°C° 0.1 mm 5 mps 754 mmHg 81%
    15:00 +14°C° 0.1 mm 4 mps 754 mmHg 80%
    16:00 +14°C° 0.3 mm 4 mps 755 mmHg 82%
    17:00 +14°C° 0.3 mm 4 mps 756 mmHg 85%
    18:00 +13°C° 0.3 mm 4 mps 756 mmHg 87%
    19:00 +13°C° 0.1 mm 4 mps 757 mmHg 87%
    20:00 +13°C° 0.1 mm 4 mps 757 mmHg 88%
    21:00 +12°C° 0.1 mm 4 mps 758 mmHg 88%
    22:00 +12°C° 0 mm 4 mps 758 mmHg 87%
    23:00 +12°C° 0 mm 3 mps 758 mmHg 87%
    Show more